User: anonymous
Location: Bangkok
(13.7500°N, 100.5170°E)
Time: 03:14:56
(UTC+07:00)
Language:

Cosmos 1802 Rocket - Orbit

View from above orbital plane
View from above orbital plane
View from above satellite
View from above satellite

Ground track
Ground track

The orbit data is extracted from the following two-line orbital elements,

1 17160U 86093B   14241.07980464  .00000012  00000-0 -42843-5 0  1623
2 17160 082.9255 103.2744 0040230 119.1828 034.6346 13.74513089392313
Epoch (UTC): 29 August 2014 01:54:55
Eccentricity: 0.0040230
inclination: 82.9255°
perigee height: 954 km
apogee height: 1013 km
right ascension of ascending node: 103.2744°
argument of perigee: 119.1828°
revolutions per day: 13.74513089
mean anomaly at epoch: 34.6346°
orbit number at epoch: 39231

The dashed part of the orbit path shows where the satellite is in the earth's shadow,  

DLR